TimeCST,TemperatureF,Dew PointF,Humidity,Sea Level PressureIn,VisibilityMPH,Wind Direction,Wind SpeedMPH,Gust SpeedMPH,PrecipitationIn,Events,Conditions,WindDirDegrees,DateUTC
12:45 AM,24.8,21.2,86,29.94,9.0,Calm,Calm,-,N/A,,Overcast,0,2013-03-09 06:45:00
12:52 AM,25.0,21.9,88,30.04,9.0,Calm,Calm,-,N/A,,Overcast,0,2013-03-09 06:52:00
1:06 AM,24.8,21.2,86,29.95,9.0,Calm,Calm,-,N/A,,Overcast,0,2013-03-09 07:06:00
1:52 AM,25.0,23.0,92,30.04,8.0,Calm,Calm,-,N/A,,Overcast,0,2013-03-09 07:52:00
2:47 AM,24.8,23.0,93,29.93,7.0,Calm,Calm,-,N/A,,Overcast,0,2013-03-09 08:47:00
2:52 AM,26.6,23.0,86,29.92,7.0,Calm,Calm,-,N/A,,Overcast,0,2013-03-09 08:52:00
3:52 AM,25.0,21.9,88,30.01,7.0,Calm,Calm,-,N/A,,Overcast,0,2013-03-09 09:52:00
4:52 AM,19.9,19.0,96,29.99,5.0,Calm,Calm,-,N/A,,Overcast,0,2013-03-09 10:52:00
5:52 AM,23.0,21.9,96,29.99,5.0,Calm,Calm,-,N/A,,Overcast,0,2013-03-09 11:52:00
6:52 AM,21.0,19.9,96,30.00,5.0,West,4.6,-,N/A,,Overcast,280,2013-03-09 12:52:00
7:19 AM,24.8,23.0,93,29.90,5.0,Calm,Calm,-,N/A,,Overcast,0,2013-03-09 13:19:00
7:52 AM,24.1,21.9,91,30.01,4.0,West,3.5,-,N/A,,Overcast,280,2013-03-09 13:52:00
8:15 AM,24.8,23.0,93,29.91,4.0,NW,5.8,-,N/A,,Overcast,310,2013-03-09 14:15:00
8:52 AM,27.0,26.1,96,30.01,2.5,NW,11.5,-,0.00,Snow,Light Snow,320,2013-03-09 14:52:00
9:08 AM,26.6,24.8,93,29.93,2.5,NW,16.1,-,0.00,Snow,Light Snow,320,2013-03-09 15:08:00
9:15 AM,26.6,24.8,93,29.93,4.0,NW,15.0,-,0.00,,Overcast,320,2013-03-09 15:15:00
9:32 AM,26.6,23.0,86,29.94,7.0,NNW,15.0,-,0.00,,Overcast,330,2013-03-09 15:32:00
9:52 AM,25.0,21.9,88,30.04,9.0,NW,20.7,-,0.00,,Overcast,320,2013-03-09 15:52:00
10:11 AM,23.0,19.4,86,29.95,10.0,NNW,13.8,-,N/A,,Scattered Clouds,340,2013-03-09 16:11:00
10:52 AM,21.9,18.0,85,30.07,10.0,NNW,18.4,-,N/A,,Clear,330,2013-03-09 16:52:00
11:52 AM,21.9,16.0,78,30.09,10.0,NNW,19.6,-,N/A,,Clear,330,2013-03-09 17:52:00
12:52 PM,21.2,15.8,80,30.02,10.0,NNW,13.8,-,N/A,,Clear,340,2013-03-09 18:52:00
1:52 PM,24.1,18.0,77,30.12,10.0,North,9.2,-,N/A,,Clear,350,2013-03-09 19:52:00
2:52 PM,23.0,17.1,78,30.14,10.0,NW,10.4,-,N/A,,Overcast,320,2013-03-09 20:52:00
3:52 PM,23.0,17.1,78,30.17,10.0,WNW,15.0,-,N/A,,Clear,300,2013-03-09 21:52:00
4:52 PM,23.0,17.1,78,30.19,10.0,NNW,15.0,-,N/A,,Partly Cloudy,340,2013-03-09 22:52:00
5:52 PM,21.0,15.1,78,30.21,10.0,NNW,15.0,-,N/A,,Clear,340,2013-03-09 23:52:00
6:52 PM,18.0,12.9,81,30.24,10.0,NNW,11.5,-,N/A,,Clear,330,2013-03-10 00:52:00
7:52 PM,16.0,12.0,84,30.27,10.0,NW,15.0,-,N/A,,Clear,320,2013-03-10 01:52:00
8:52 PM,15.1,10.9,84,30.29,10.0,NNW,16.1,-,N/A,,Clear,330,2013-03-10 02:52:00
9:52 PM,15.1,10.0,80,30.31,10.0,NNW,16.1,-,N/A,,Clear,330,2013-03-10 03:52:00
10:52 PM,15.1,10.9,84,30.34,10.0,NNW,16.1,25.3,N/A,,Clear,340,2013-03-10 04:52:00
11:52 PM,12.0,9.0,88,30.35,10.0,NE,3.5,-,N/A,,Clear,50,2013-03-10 05:52:00